Find Starlink 11603

NORAD ID: 63671 Int'l Des: 2025-085 Owner: SPXS Country: US Constellation: starlink operational
LEOCIRCULAR

实时位置

正在加载3D地球...

关于 Starlink 11603

正在加载描述...

即将过境

Passes for default location (London). Set your location on the main map for personalized predictions.

高度历史

Loading altitude history...

两行轨道根数

1 63671U 25085H 26126.50498882 .00153897 00000-0 11792-2 0 9999
2 63671 43.0004 290.0164 0001629 261.7670 98.3013 15.70871554 59332
Epoch: May 6, 2026 • Age: 11 hours

当前状态

高度 355.9 km
速度 7.70 km/s
星下点 18.87°N, 100.07°E
发射日期 Apr 28, 2025
运行时间 1 years
类型 internet

技术详情

分类 Payload
质量 960.00 kg
干质量 910.00 kg
总质量 960.00 kg
长度 0.30 m
直径 4.10 m
跨度 29.00 m
形状 Box + pan
制造商 SPXS
平台类型 Starlink V2MD
阶段状态 In Orbit
所有者/国家 SPXS/US

Most Searched